• Em Portugal
  • Lista de países
  • Para 7 dias
  • Temperatura da água
  • Mapas de satélite
  • Mapa do tempo
  • Widgets de tempo
  • user-avatar
    Iniciar Sessão

    Previsão horária em Armawir

    Hoje, 16 Julho, Segunda-feira

    Tempo Temperatura Precipitação Vento Pressão Humidade
    00:00 +22°C° 0,5 mm 3 m/s 681 mmHg 69%
    01:00 +22°C° 0,2 mm 3 m/s 681 mmHg 71%
    02:00 +21°C° 0,2 mm 2 m/s 681 mmHg 72%
    03:00 +21°C° 0,2 mm 2 m/s 681 mmHg 73%
    04:00 +21°C° 0,1 mm 2 m/s 681 mmHg 72%
    05:00 +21°C° 0,1 mm 2 m/s 682 mmHg 71%
    06:00 +21°C° 0,1 mm 3 m/s 682 mmHg 70%
    07:00 +22°C° 0,3 mm 3 m/s 682 mmHg 65%
    08:00 +24°C° 0,3 mm 3 m/s 682 mmHg 61%
    09:00 +25°C° 0,3 mm 3 m/s 682 mmHg 57%
    10:00 +26°C° 0,1 mm 2 m/s 682 mmHg 53%
    11:00 +27°C° 0,1 mm 2 m/s 682 mmHg 50%
    12:00 +28°C° 0,1 mm 1 m/s 682 mmHg 46%
    13:00 +29°C° 0 mm 2 m/s 682 mmHg 43%
    14:00 +30°C° 0 mm 2 m/s 682 mmHg 39%
    15:00 +31°C° 0 mm 2 m/s 682 mmHg 35%
    16:00 +31°C° 0 mm 2 m/s 682 mmHg 36%
    17:00 +31°C° 0 mm 2 m/s 682 mmHg 37%
    18:00 +30°C° 0 mm 2 m/s 682 mmHg 37%
    19:00 +29°C° 0 mm 2 m/s 682 mmHg 44%
    20:00 +27°C° 0 mm 2 m/s 682 mmHg 50%
    21:00 +25°C° 0 mm 3 m/s 683 mmHg 56%
    22:00 +24°C° 0,2 mm 3 m/s 683 mmHg 60%
    23:00 +23°C° 0,2 mm 2 m/s 683 mmHg 64%

    Amanhã, 17 Julho, Terça-feira

    Tempo Temperatura Precipitação Vento Pressão Humidade
    00:00 +21°C° 0,2 mm 2 m/s 683 mmHg 68%
    01:00 +21°C° 0,1 mm 2 m/s 683 mmHg 69%
    02:00 +21°C° 0,1 mm 2 m/s 683 mmHg 70%
    03:00 +20°C° 0,1 mm 2 m/s 683 mmHg 72%
    04:00 +21°C° 0,1 mm 2 m/s 683 mmHg 70%
    05:00 +21°C° 0,1 mm 2 m/s 683 mmHg 68%
    06:00 +21°C° 0,1 mm 2 m/s 683 mmHg 67%
    07:00 +24°C° 0,2 mm 2 m/s 683 mmHg 60%
    08:00 +26°C° 0,2 mm 2 m/s 683 mmHg 54%
    09:00 +28°C° 0,2 mm 2 m/s 683 mmHg 48%
    10:00 +29°C° 0,4 mm 2 m/s 683 mmHg 44%
    11:00 +30°C° 0,4 mm 2 m/s 683 mmHg 40%
    12:00 +32°C° 0,4 mm 2 m/s 683 mmHg 37%
    13:00 +32°C° 0,3 mm 2 m/s 683 mmHg 35%
    14:00 +32°C° 0,3 mm 2 m/s 682 mmHg 34%
    15:00 +34°C° 0,3 mm 2 m/s 682 mmHg 33%
    16:00 +32°C° 0,3 mm 2 m/s 682 mmHg 35%
    17:00 +32°C° 0,3 mm 2 m/s 682 mmHg 37%
    18:00 +31°C° 0,3 mm 2 m/s 682 mmHg 39%
    19:00 +29°C° 0,2 mm 3 m/s 682 mmHg 45%
    20:00 +27°C° 0,2 mm 3 m/s 683 mmHg 52%
    21:00 +25°C° 0,2 mm 3 m/s 683 mmHg 58%
    22:00 +25°C° 0,1 mm 3 m/s 683 mmHg 61%
    23:00 +24°C° 0,1 mm 2 m/s 683 mmHg 63%

    Depois de amanhã, 18 Julho, Quarta-feira

    Tempo Temperatura Precipitação Vento Pressão Humidade
    00:00 +23°C° 0,1 mm 2 m/s 683 mmHg 66%
    01:00 +21°C° 0 mm 2 m/s 683 mmHg 67%
    02:00 +21°C° 0 mm 2 m/s 683 mmHg 69%
    03:00 +21°C° 0 mm 2 m/s 682 mmHg 70%
    04:00 +21°C° 0 mm 2 m/s 683 mmHg 69%
    05:00 +23°C° 0 mm 2 m/s 683 mmHg 67%
    06:00 +23°C° 0 mm 2 m/s 683 mmHg 66%
    07:00 +25°C° 0 mm 2 m/s 683 mmHg 58%
    08:00 +28°C° 0 mm 2 m/s 683 mmHg 50%
    09:00 +30°C° 0 mm 2 m/s 683 mmHg 42%
    10:00 +31°C° 0 mm 2 m/s 683 mmHg 38%
    11:00 +34°C° 0 mm 2 m/s 683 mmHg 34%
    12:00 +35°C° 0 mm 2 m/s 683 mmHg 30%
    13:00 +36°C° 0 mm 3 m/s 682 mmHg 28%
    14:00 +37°C° 0 mm 3 m/s 682 mmHg 27%
    15:00 +37°C° 0 mm 3 m/s 682 mmHg 25%
    16:00 +37°C° 0 mm 3 m/s 682 mmHg 27%
    17:00 +36°C° 0 mm 3 m/s 682 mmHg 29%
    18:00 +35°C° 0 mm 2 m/s 681 mmHg 31%
    19:00 +32°C° 0 mm 2 m/s 682 mmHg 38%
    20:00 +30°C° 0 mm 2 m/s 682 mmHg 45%
    21:00 +27°C° 0 mm 3 m/s 682 mmHg 52%
    22:00 +27°C° 0 mm 3 m/s 682 mmHg 55%
    23:00 +26°C° 0 mm 2 m/s 682 mmHg 57%

    19 Julho, Quinta-feira

    Tempo Temperatura Precipitação Vento Pressão Humidade
    00:00 +25°C° 0 mm 2 m/s 682 mmHg 60%
    01:00 +25°C° 0 mm 2 m/s 682 mmHg 62%
    02:00 +24°C° 0 mm 2 m/s 682 mmHg 63%
    03:00 +24°C° 0 mm 2 m/s 682 mmHg 65%
    04:00 +24°C° 0 mm 2 m/s 682 mmHg 64%
    05:00 +25°C° 0 mm 2 m/s 683 mmHg 63%
    06:00 +25°C° 0 mm 2 m/s 683 mmHg 62%
    07:00 +27°C° 0 mm 2 m/s 683 mmHg 53%
    08:00 +30°C° 0 mm 2 m/s 683 mmHg 43%
    09:00 +32°C° 0 mm 2 m/s 684 mmHg 34%
    10:00 +35°C° 0 mm 2 m/s 684 mmHg 29%
    11:00 +36°C° 0 mm 2 m/s 683 mmHg 25%
    12:00 +38°C° 0 mm 2 m/s 683 mmHg 21%
    13:00 +38°C° 0 mm 2 m/s 683 mmHg 19%
    14:00 +39°C° 0 mm 3 m/s 683 mmHg 18%
    15:00 +40°C° 0 mm 3 m/s 683 mmHg 17%
    16:00 +39°C° 0 mm 2 m/s 683 mmHg 19%
    17:00 +38°C° 0 mm 2 m/s 683 mmHg 21%
    18:00 +37°C° 0 mm 2 m/s 682 mmHg 23%
    19:00 +35°C° 0 mm 2 m/s 683 mmHg 31%
    20:00 +31°C° 0 mm 2 m/s 683 mmHg 39%
    21:00 +28°C° 0 mm 2 m/s 683 mmHg 47%
    22:00 +28°C° 0 mm 2 m/s 683 mmHg 51%
    23:00 +27°C° 0 mm 2 m/s 683 mmHg 55%

    20 Julho, Sexta-feira

    Tempo Temperatura Precipitação Vento Pressão Humidade
    00:00 +26°C° 0 mm 3 m/s 683 mmHg 58%
    01:00 +26°C° 0 mm 2 m/s 683 mmHg 59%
    02:00 +25°C° 0 mm 2 m/s 683 mmHg 60%
    03:00 +25°C° 0 mm 2 m/s 682 mmHg 61%
    04:00 +25°C° 0 mm 2 m/s 683 mmHg 61%
    05:00 +26°C° 0 mm 2 m/s 683 mmHg 60%
    06:00 +26°C° 0 mm 2 m/s 683 mmHg 59%
    07:00 +28°C° 0 mm 2 m/s 683 mmHg 51%
    08:00 +31°C° 0 mm 2 m/s 683 mmHg 43%
    09:00 +34°C° 0 mm 2 m/s 683 mmHg 35%
    10:00 +36°C° 0 mm 2 m/s 683 mmHg 31%
    11:00 +37°C° 0 mm 2 m/s 683 mmHg 27%
    12:00 +39°C° 0 mm 2 m/s 683 mmHg 23%
    13:00 +40°C° 0 mm 2 m/s 682 mmHg 22%
    14:00 +40°C° 0 mm 3 m/s 682 mmHg 21%
    15:00 +42°C° 0 mm 3 m/s 682 mmHg 20%
    16:00 +40°C° 0 mm 3 m/s 682 mmHg 22%
    17:00 +39°C° 0 mm 3 m/s 681 mmHg 25%
    18:00 +38°C° 0 mm 3 m/s 681 mmHg 27%
    19:00 +35°C° 0 mm 3 m/s 681 mmHg 35%
    20:00 +33°C° 0 mm 3 m/s 681 mmHg 43%
    21:00 +29°C° 0 mm 3 m/s 682 mmHg 51%
    22:00 +28°C° 0 mm 3 m/s 682 mmHg 53%
    23:00 +28°C° 0 mm 3 m/s 682 mmHg 54%

    21 Julho, Sábado

    Tempo Temperatura Precipitação Vento Pressão Humidade
    00:00 +27°C° 0 mm 3 m/s 682 mmHg 55%
    01:00 +26°C° 0 mm 3 m/s 682 mmHg 58%
    02:00 +26°C° 0 mm 3 m/s 682 mmHg 62%
    03:00 +25°C° 0 mm 3 m/s 682 mmHg 65%
    04:00 +25°C° 0 mm 3 m/s 682 mmHg 65%
    05:00 +25°C° 0 mm 3 m/s 682 mmHg 66%
    06:00 +25°C° 0 mm 3 m/s 683 mmHg 66%
    07:00 +28°C° 0 mm 3 m/s 683 mmHg 59%
    08:00 +30°C° 0 mm 3 m/s 683 mmHg 53%
    09:00 +33°C° 0 mm 3 m/s 683 mmHg 46%
    10:00 +34°C° 0 mm 3 m/s 683 mmHg 41%
    11:00 +35°C° 0 mm 2 m/s 683 mmHg 37%
    12:00 +37°C° 0 mm 2 m/s 682 mmHg 32%
    13:00 +37°C° 0 mm 3 m/s 682 mmHg 30%
    14:00 +38°C° 0 mm 3 m/s 682 mmHg 29%
    15:00 +40°C° 0 mm 4 m/s 682 mmHg 27%
    16:00 +38°C° 0,4 mm 4 m/s 682 mmHg 31%
    17:00 +37°C° 0,4 mm 4 m/s 682 mmHg 35%
    18:00 +36°C° 0,4 mm 5 m/s 682 mmHg 38%
    19:00 +33°C° 0,2 mm 4 m/s 682 mmHg 45%
    20:00 +30°C° 0,2 mm 4 m/s 683 mmHg 52%
    21:00 +28°C° 0,2 mm 4 m/s 683 mmHg 59%
    22:00 +27°C° 0,2 mm 4 m/s 683 mmHg 63%
    23:00 +26°C° 0,2 mm 3 m/s 683 mmHg 66%
    Mostrar mais